{"data":{"norad_id":43786,"intl_designator":"2018-099AE","name":"ITASAT","alt_names":[],"object_type":"PAYLOAD","status":"ACTIVE","operator":null,"country":"BRAZ","launch_date":"2018-12-03","launch_site_code":"AFWTR","launch_vehicle":null,"mission":null,"orbit_class":"UNKNOWN","rcs_meters":null,"size_class":null,"mass_kg":null,"dimensions":null,"purposes":["comms"],"wikipedia_slug":null,"has_3d_model":false,"image_url":null,"decayed_at":null,"tle_current":{"epoch":"2026-05-25T02:17:47.800896Z","epoch_age_seconds":66243,"freshness":"FRESH","line1":"1 43786U 18099AE  26145.09569214  .00006696  00000+0  32508-3 0  9996","line2":"2 43786  97.4047 197.0718 0014206  76.6272 283.6545 15.18708379409406","mean_motion":15.18708379,"eccentricity":0.0014206,"inclination_deg":97.4047,"raan_deg":197.0718,"arg_perigee_deg":76.6272,"mean_anomaly_deg":283.6545,"bstar":0.00032508,"rev_number":40940,"period_min":94.817413264565,"perigee_km":499.9582311519,"apogee_km":519.52807624459,"semimajor_km":6887.8801536982,"source":"CELESTRAK","updated_at":"2026-05-25T13:38:23.288990Z"}}}